SCP
0 0 0 0 0 0 0 0 0 0 0 0 0 0 0 0 0 0 0 0 0 0 0 0 0 0 0 0 0 0 0 0 0 0 0 0 0 0 -0 -0 0 0 0 0
0 0 0 0 0 0 0 0 0 0 0 0 0 0 0 0 0 0 0 0 0 0 0 0 0 0 0 0 0 0 0 0 0 0 0 0 0 0 0 0 0 0 0 0
0 0 0 0 0 0 0 0 0 0 0 0 0 0 0 0 0 0 0 0 0 0 0 0 0 0 0 0 0 0 0 0 0 0 0 0 0 0 0 0 0 0 0 0
0 0 0 0 0 0 0 0 0 0 0 0 0 0 0 0 0 0 0 0 0 0 0 0 0 0 0 0 0 0 0 0 0 0 0 0 0 0 0 0 0 0 0 0
0 0 0 0 0 0 0 0 0 0 0 0 0 0 0 0 0 0 0 0 0 0 0 0 0 0 0 0 -0 0 0 0 0 0 0 0 0 0 0 0 0 0 0 0
0 0 0 0 0 0 0 0 0 0 0 0 0 0 0 0 0 0 0 0 0 0 0 0 0 0 0 0 0 0 0 0 0 0 0 0 0 0 0 0 0 0 0 0
0 0 0 0 0 0 0 0 0 0 0 0 0 0 0 0 0 0 0 0 0 0 0 0 0 0 0 0 0 0 0 0 0 0 0 0 0 0 0 0 0 0 0 0
0 0 0 0 0 0 0 0 0 0 0 0 0 0 0 0 0 0 0 0 0 0 0 0 0 0 0 0 0 0 0 0 0 0 0 0 0 0 0 0 0 0 0 0
0 0 0 0 0 0 0 0 0 0 0 0 0 0 0 0 0 0 0 0 0 0 0 0 0 0 0 0 0 0 0 0 0 0 0 0 0 0 0 0 0 0 0 0
0 0 0 0 0 0 0 0 0 0 0 0 0 0 0 0 0 0 0 0 0 0 0 0 0 0 0 0 0 0 0 0 0 0 0 0 0 0 0 0 0 0 0 0
0 0 0 0 0 0 0 0 0 0 0 0 0 0 0 0 0 0 0 0 0 0 0 0 0 0 0 0 0 0 0 0 0 0 0 0 0 0 0 0 0 0 0 0
0 0 0 0 0 0 0 0 0 0 0 0 0 0 0 0 0 0 0 0 0 0 0 0 0 0 0 0 0 0 0 0 0 0 0 0 0 0 0 0 0 0 0 0
0 0 0 0 0 0 0 0 0 0 0 0 0 0 0 0 0 0 0 0 0 0 0 0 0 0 0 0 0 0 0 0 0 0 0 0 0 0 0 0 0 0 0 0
0 0 0 0 0 0 0 0 0 0 0 0 0 0 0 0 0 0 0 0 0 0 0 0 0 0 0 0 0 0 0 0 0 0 0 0 0 0 0 0 0 0 0 0
0 0 0 0 0 0 0 0 0 0 0 0 0 0 0 0 0 0 0 0 0 0 0 0 0 0 0 0 0 0 0 0 0 0 0 0 0 0 0 0 0 0 0 0
0 0 0 0 0 0 0 0 0 0 0 0 0 0 0 0 0 0 0 0 0 0 0 0 0 0 0 0 0 0 0 0 0 0 0 0 0 0 0 0 0 0 0 0
0 0 0 0 0 0 0 0 0 0 0 0 0 0 0 0 0 0 0 0 0 0 0 0 0 0 0 0 0 0 0 0 0 0 0 0 0 0 0 0 0 0 0 0
0 0 0 0 0 0 0 0 0 0 0 0 0 0 0 0 0 0 0 0 0 0 0 0 0 0 0 0 0 0 0 0 0 0 0 0 0 0 0 0 0 0 0 0
0 0 0 0 0 0 0 0 0 0 0 0 0 0 0 0 0 0 0 0 0 0 0 0 0 0 0 0 0 0 0 -0 -0 0 0 0 0 0 0 0 0 0 0 0
0 0 0 0 0 0 0 0 0 0 0 0 0 0 0 0 0 0 0 0 0 0 0 0 0 0 0 0 0 0 0 -0 0 -0 0 0 0 0 0 0 -0 0 -0 -0
0 0 0 0 0 0 0 0 0 0 0 0 0 0 0 0 0 0 0 0 0 0 0 0 0 0 0 0 0 0 -0 -0 0 -0 -0 -0 -0 -0 -0 -0 -0 -0 -0 0
0 0 0 0 0 0 0 0 0 0 0 0 0 0 0 0 0 0 0 0 0 0 0 0 0 0 0 0 0 -0 -0 -0 -0 0 0 -0 -0 -0 -0 -0 -0 -0 -0 -0
0 0 0 0 0 0 0 0 0 0 0 0 0 0 0 0 0 0 0 0 0 -0 -0 0 -0 0 0 -0 -0 0 -0 -0 0 -0 -0 -0 -0 -0 -0 -0 -0 -0 -0 -0
0 0 0 0 0 0 0 0 0 0 0 0 0 0 0 0 0 0 0 0 -0 -0 0 0 0 0 -0 -0 0 0 0 -0 -0 -0 -0 -0 -0 -0 -0 -0 -0 -0 -0 -0
0 0 0 0 0 0 0 0 0 0 0 0 0 0 0 0 0 0 0 -0 0 0 0 0 0 -0 -0 0 0 0 -0 -0 -0 -0 -0 -0 -0 -0 -0 -0 0 0 -0 0
0 0 0 0 0 0 0 0 0 0 0 0 0 0 0 0 0 0 -0 0 0 0 0 0 -0 -0 0 0 -0 -0 -0 -0 -0 -0 -0 -0 -0 0 0 0 0 -0 0 -0
Wind_Speed_500mb
9 11 3 4 7 9 14 9 5 2 5 14 9 11 24 41 43 41 51 51 44 36 28 23 20 16 10 2 6 15 27 35 41 47 47 51 55 61 64 59 56 57 56 57
12 4 3 12 12 16 10 9 4 5 10 15 2 16 12 30 18 31 51 57 53 47 39 33 25 16 9 7 17 25 29 33 28 29 37 40 44 45 44 44 45 46 52 55
9 5 9 13 7 14 7 10 3 3 7 8 8 10 12 10 29 44 52 49 45 40 34 26 17 4 8 17 25 28 28 26 31 35 35 41 43 42 42 43 47 48 49 50
7 9 10 7 7 7 4 3 4 5 6 6 3 5 3 2 8 11 28 32 32 26 19 11 6 12 18 20 20 21 27 35 40 40 40 41 42 44 44 45 49 53 54 55
7 6 6 9 2 6 5 5 5 5 7 5 6 8 7 8 6 10 17 20 19 15 9 7 12 16 21 24 27 32 37 36 35 36 35 39 41 46 49 51 57 62 64 64
3 3 4 6 6 7 8 6 11 8 6 5 3 7 7 11 14 9 15 20 11 8 6 9 14 19 26 26 31 35 43 40 35 34 37 42 43 50 56 60 66 70 71 69
11 8 10 5 6 8 11 12 8 10 9 9 5 3 14 10 11 15 26 14 8 3 6 12 16 24 29 32 36 39 43 39 42 47 51 61 68 64 65 67 68 70 70 70
8 6 9 14 6 3 6 9 10 8 6 9 8 9 8 4 6 7 14 13 5 4 11 19 25 34 38 43 45 44 43 49 53 59 68 75 77 75 71 73 74 71 71 66
6 2 8 10 4 5 3 4 4 10 5 3 6 10 5 5 4 10 12 6 2 7 16 23 31 36 43 45 49 59 66 72 71 70 75 77 74 76 77 79 72 66 66 58
6 4 4 7 2 16 8 8 5 6 4 8 8 8 7 9 12 7 8 10 6 8 14 23 29 33 38 47 59 69 69 72 68 71 79 72 71 84 80 66 59 58 62 47
5 6 7 3 11 4 9 6 11 7 7 6 5 10 4 16 15 17 24 13 9 12 19 20 23 31 45 58 71 76 70 70 74 84 66 66 78 70 51 50 53 56 47 37
4 8 0 3 12 4 8 7 9 9 7 1 7 12 6 6 4 8 8 6 12 16 19 24 29 43 59 68 75 78 69 69 73 67 58 62 61 58 53 49 49 49 37 32
7 5 6 10 11 8 11 5 8 9 6 9 7 10 2 3 5 6 2 9 16 20 28 30 41 52 61 68 79 72 68 67 60 56 48 51 51 59 55 48 43 37 29 22
8 6 11 11 11 5 4 2 4 10 6 5 12 13 9 6 3 9 17 22 28 31 37 38 46 52 63 75 74 70 67 57 54 47 41 46 52 49 40 35 32 25 16 17
8 6 5 6 7 4 7 9 10 11 12 10 10 8 7 7 8 18 26 31 35 45 44 42 47 58 69 80 73 68 64 56 48 38 40 40 38 42 33 29 20 17 14 12
5 5 3 6 5 2 8 12 15 10 9 12 5 8 5 8 17 29 42 42 48 51 48 45 47 61 72 77 71 66 63 49 39 40 40 27 37 32 25 23 18 13 15 17
5 9 5 7 6 9 9 6 7 8 1 0 5 9 7 12 29 42 48 46 56 55 49 46 53 64 75 76 63 61 44 40 36 33 28 37 28 20 22 21 18 13 11 18
10 8 4 5 5 3 9 6 7 6 3 7 6 9 21 33 39 44 49 56 54 53 49 52 59 71 74 68 57 41 36 36 30 29 31 21 19 22 27 29 26 32 31 29
2 10 6 5 3 11 6 3 3 4 11 13 9 16 30 39 30 40 39 37 43 43 51 54 58 63 73 57 40 30 31 33 33 26 19 22 22 26 27 27 24 25 28 28
11 11 8 4 6 7 8 5 2 10 8 5 19 27 34 32 18 16 33 55 49 55 57 57 53 67 52 42 24 28 30 31 24 22 30 32 28 31 27 24 25 24 23 27
4 4 8 5 3 13 6 11 4 7 10 11 20 30 34 9 25 49 55 65 66 62 54 46 54 49 44 28 23 21 24 22 21 31 32 27 23 22 26 29 28 22 33 30
10 10 7 6 5 11 5 3 6 9 19 28 34 32 32 35 46 59 68 66 63 65 53 42 39 44 27 17 15 16 20 29 34 27 22 23 32 31 33 35 34 28 26 24
1 9 8 13 10 6 3 13 26 23 29 31 25 24 32 43 57 62 59 63 55 51 40 32 37 27 22 12 13 24 38 29 22 24 24 27 28 31 33 31 29 28 27 24
4 4 3 8 4 9 18 26 24 25 23 17 20 27 38 51 57 51 53 45 44 42 37 30 22 20 21 27 37 42 30 27 28 26 29 32 34 34 31 31 30 29 28 31
8 3 4 7 17 18 19 31 26 21 15 17 25 36 46 51 48 43 42 37 37 37 34 25 22 21 31 46 41 37 33 31 30 33 36 33 30 29 30 29 28 25 21 23
10 9 7 9 14 9 31 24 19 12 16 26 38 47 45 39 43 38 37 32 33 30 24 21 21 31 45 38 39 34 29 26 25 25 27 26 29 26 28 27 35 28 25 18
Wind_Direction_500mb
7 69 164 117 181 142 108 98 124 208 56 77 66 42 7 4 49 90 109 121 123 124 130 140 133 120 116 169 285 325 341 338 331 331 340 343 345 339 333 333 328 328 334 333
20 41 119 90 106 104 96 109 9 324 30 90 38 38 4 26 29 82 106 114 116 116 120 126 135 156 199 298 338 342 337 335 341 345 347 347 342 341 342 339 343 333 331 335
119 292 140 112 96 82 45 117 153 200 28 63 125 36 8 9 68 93 111 118 123 127 132 144 160 138 354 336 335 333 332 335 331 331 333 331 329 331 336 345 345 343 340 331
64 343 97 83 81 108 102 223 179 220 94 214 98 247 340 339 67 72 127 134 138 146 145 123 59 6 359 354 349 344 337 329 324 325 323 324 326 328 328 331 331 334 333 336
277 22 45 61 344 115 173 88 42 19 97 96 338 83 248 182 208 207 189 167 157 142 127 76 32 29 17 10 7 356 344 330 320 319 316 313 313 315 317 319 318 320 323 329
350 328 56 135 59 54 105 81 51 58 85 40 222 110 240 188 198 213 212 198 168 143 104 52 32 23 12 4 353 345 337 329 326 324 326 323 316 314 312 312 311 312 314 319
356 1 334 78 82 29 68 48 348 351 7 223 164 68 245 221 207 200 203 173 164 108 27 19 17 4 356 346 340 335 330 323 327 326 324 322 319 311 307 308 307 307 309 312
136 321 17 341 61 172 45 134 150 256 230 262 271 246 255 251 205 179 149 165 161 9 8 9 358 348 339 336 334 333 327 322 319 315 316 318 315 311 309 309 306 303 303 305
129 317 320 51 16 87 156 57 169 106 28 52 262 306 349 31 85 135 145 170 241 360 3 350 338 332 330 331 331 329 323 318 316 314 316 314 310 309 310 312 302 300 298 295
191 97 9 310 61 45 98 143 35 13 247 271 289 278 243 308 262 259 209 236 262 326 323 315 320 325 329 328 327 327 321 317 313 310 313 310 310 311 309 306 306 301 303 294
108 86 289 22 24 347 0 30 53 113 122 201 303 269 216 274 278 251 212 222 248 290 302 303 316 328 326 327 331 329 318 312 306 309 311 307 313 323 320 316 312 310 307 294
4 123 139 80 316 257 102 129 106 104 273 134 155 263 327 299 348 137 162 228 268 284 292 304 316 326 333 332 330 327 321 311 311 313 312 309 320 322 319 312 313 314 298 310
173 28 27 2 353 354 81 106 109 99 70 215 155 270 36 37 56 89 18 314 300 285 292 297 318 328 331 330 331 329 324 322 322 317 317 320 321 324 321 317 317 305 317 319
97 116 155 190 215 164 285 190 131 132 119 229 236 285 251 218 262 317 315 307 298 290 292 299 318 322 328 332 333 330 329 329 330 326 323 327 326 333 336 331 331 328 331 325
89 176 191 256 245 206 235 250 180 188 213 187 263 254 300 226 267 287 291 299 298 290 288 302 312 323 330 334 332 330 329 328 332 331 332 329 324 329 335 343 342 344 341 6
24 189 143 276 349 84 276 286 291 244 219 236 278 282 220 271 281 286 289 300 304 299 291 307 313 324 330 332 331 329 330 333 326 327 331 342 335 336 347 2 6 20 48 65
101 126 92 272 4 343 332 231 251 277 129 206 242 246 276 282 279 284 295 300 305 300 295 308 314 322 327 330 329 328 334 339 340 335 332 342 344 8 25 27 17 2 36 51
125 99 87 240 358 357 248 333 213 250 259 218 219 247 262 273 291 295 297 307 310 306 299 304 312 318 325 326 327 333 334 341 341 335 342 359 34 62 63 53 51 65 51 47
85 117 84 114 168 287 144 218 86 96 282 214 217 275 294 307 311 300 318 323 321 309 302 304 311 318 323 325 328 337 354 350 352 3 28 58 79 71 59 54 54 58 57 51
78 79 111 110 125 256 237 208 198 140 293 256 222 275 295 315 309 304 324 319 319 315 311 311 314 322 324 328 335 334 357 355 17 60 83 80 55 67 64 57 62 66 65 70
65 28 161 134 223 294 256 242 11 77 249 287 291 294 303 266 292 311 317 314 314 315 316 310 313 322 326 334 338 346 1 28 72 95 85 70 60 51 61 52 61 79 77 65
170 149 189 134 198 270 342 26 209 236 305 305 307 312 314 313 314 314 316 320 322 320 320 312 311 325 339 347 7 31 57 89 93 71 59 51 59 71 61 62 54 52 54 55
266 178 180 172 215 245 287 287 280 282 296 298 306 315 318 316 318 321 325 329 336 339 337 329 317 342 357 33 59 86 103 86 59 71 71 69 63 61 72 58 60 63 62 69
327 179 147 50 299 243 263 311 302 285 293 302 316 320 322 321 326 328 333 339 347 355 352 355 10 26 59 81 100 95 82 75 79 77 77 75 77 73 60 64 62 61 63 62
209 108 166 261 279 292 294 301 302 294 300 318 322 325 326 329 336 334 337 345 349 1 12 22 41 76 96 108 94 88 88 87 87 81 77 83 72 66 65 60 53 50 60 60
196 190 153 224 240 254 308 330 319 309 315 321 326 327 330 336 333 332 337 340 345 359 20 49 78 104 117 104 99 98 93 92 87 90 92 79 69 69 55 58 47 53 53 58
Wind_Speed_850mb
9 11 3 4 7 9 14 9 5 2 5 14 9 11 24 41 43 41 51 51 44 36 28 23 20 16 10 2 6 15 27 35 41 47 47 51 55 61 64 59 56 57 56 57
12 4 3 12 12 16 10 9 4 5 10 15 2 16 12 30 18 31 51 57 53 47 39 33 25 16 9 7 17 25 29 33 28 29 37 40 44 45 44 44 45 46 52 55
9 5 9 13 7 14 7 10 3 3 7 8 8 10 12 10 29 44 52 49 45 40 34 26 17 4 8 17 25 28 28 26 31 35 35 41 43 42 42 43 47 48 49 50
7 9 10 7 7 7 4 3 4 5 6 6 3 5 3 2 8 11 28 32 32 26 19 11 6 12 18 20 20 21 27 35 40 40 40 41 42 44 44 45 49 53 54 55
7 6 6 9 2 6 5 5 5 5 7 5 6 8 7 8 6 10 17 20 19 15 9 7 12 16 21 24 27 32 37 36 35 36 35 39 41 46 49 51 57 62 64 64
3 3 4 6 6 7 8 6 11 8 6 5 3 7 7 11 14 9 15 20 11 8 6 9 14 19 26 26 31 35 43 40 35 34 37 42 43 50 56 60 66 70 71 69
11 8 10 5 6 8 11 12 8 10 9 9 5 3 14 10 11 15 26 14 8 3 6 12 16 24 29 32 36 39 43 39 42 47 51 61 68 64 65 67 68 70 70 70
8 6 9 14 6 3 6 9 10 8 6 9 8 9 8 4 6 7 14 13 5 4 11 19 25 34 38 43 45 44 43 49 53 59 68 75 77 75 71 73 74 71 71 66
6 2 8 10 4 5 3 4 4 10 5 3 6 10 5 5 4 10 12 6 2 7 16 23 31 36 43 45 49 59 66 72 71 70 75 77 74 76 77 79 72 66 66 58
6 4 4 7 2 16 8 8 5 6 4 8 8 8 7 9 12 7 8 10 6 8 14 23 29 33 38 47 59 69 69 72 68 71 79 72 71 84 80 66 59 58 62 47
5 6 7 3 11 4 9 6 11 7 7 6 5 10 4 16 15 17 24 13 9 12 19 20 23 31 45 58 71 76 70 70 74 84 66 66 78 70 51 50 53 56 47 37
4 8 0 3 12 4 8 7 9 9 7 1 7 12 6 6 4 8 8 6 12 16 19 24 29 43 59 68 75 78 69 69 73 67 58 62 61 58 53 49 49 49 37 32
7 5 6 10 11 8 11 5 8 9 6 9 7 10 2 3 5 6 2 9 16 20 28 30 41 52 61 68 79 72 68 67 60 56 48 51 51 59 55 48 43 37 29 22
8 6 11 11 11 5 4 2 4 10 6 5 12 13 9 6 3 9 17 22 28 31 37 38 46 52 63 75 74 70 67 57 54 47 41 46 52 49 40 35 32 25 16 17
8 6 5 6 7 4 7 9 10 11 12 10 10 8 7 7 8 18 26 31 35 45 44 42 47 58 69 80 73 68 64 56 48 38 40 40 38 42 33 29 20 17 14 12
5 5 3 6 5 2 8 12 15 10 9 12 5 8 5 8 17 29 42 42 48 51 48 45 47 61 72 77 71 66 63 49 39 40 40 27 37 32 25 23 18 13 15 17
5 9 5 7 6 9 9 6 7 8 1 0 5 9 7 12 29 42 48 46 56 55 49 46 53 64 75 76 63 61 44 40 36 33 28 37 28 20 22 21 18 13 11 18
10 8 4 5 5 3 9 6 7 6 3 7 6 9 21 33 39 44 49 56 54 53 49 52 59 71 74 68 57 41 36 36 30 29 31 21 19 22 27 29 26 32 31 29
2 10 6 5 3 11 6 3 3 4 11 13 9 16 30 39 30 40 39 37 43 43 51 54 58 63 73 57 40 30 31 33 33 26 19 22 22 26 27 27 24 25 28 28
11 11 8 4 6 7 8 5 2 10 8 5 19 27 34 32 18 16 33 55 49 55 57 57 53 67 52 42 24 28 30 31 24 22 30 32 28 31 27 24 25 24 23 27
4 4 8 5 3 13 6 11 4 7 10 11 20 30 34 9 25 49 55 65 66 62 54 46 54 49 44 28 23 21 24 22 21 31 32 27 23 22 26 29 28 22 33 30
10 10 7 6 5 11 5 3 6 9 19 28 34 32 32 35 46 59 68 66 63 65 53 42 39 44 27 17 15 16 20 29 34 27 22 23 32 31 33 35 34 28 26 24
1 9 8 13 10 6 3 13 26 23 29 31 25 24 32 43 57 62 59 63 55 51 40 32 37 27 22 12 13 24 38 29 22 24 24 27 28 31 33 31 29 28 27 24
4 4 3 8 4 9 18 26 24 25 23 17 20 27 38 51 57 51 53 45 44 42 37 30 22 20 21 27 37 42 30 27 28 26 29 32 34 34 31 31 30 29 28 31
8 3 4 7 17 18 19 31 26 21 15 17 25 36 46 51 48 43 42 37 37 37 34 25 22 21 31 46 41 37 33 31 30 33 36 33 30 29 30 29 28 25 21 23
10 9 7 9 14 9 31 24 19 12 16 26 38 47 45 39 43 38 37 32 33 30 24 21 21 31 45 38 39 34 29 26 25 25 27 26 29 26 28 27 35 28 25 18
Wind_Direction_850mb
7 69 164 117 181 142 108 98 124 208 56 77 66 42 7 4 49 90 109 121 123 124 130 140 133 120 116 169 285 325 341 338 331 331 340 343 345 339 333 333 328 328 334 333
20 41 119 90 106 104 96 109 9 324 30 90 38 38 4 26 29 82 106 114 116 116 120 126 135 156 199 298 338 342 337 335 341 345 347 347 342 341 342 339 343 333 331 335
119 292 140 112 96 82 45 117 153 200 28 63 125 36 8 9 68 93 111 118 123 127 132 144 160 138 354 336 335 333 332 335 331 331 333 331 329 331 336 345 345 343 340 331
64 343 97 83 81 108 102 223 179 220 94 214 98 247 340 339 67 72 127 134 138 146 145 123 59 6 359 354 349 344 337 329 324 325 323 324 326 328 328 331 331 334 333 336
277 22 45 61 344 115 173 88 42 19 97 96 338 83 248 182 208 207 189 167 157 142 127 76 32 29 17 10 7 356 344 330 320 319 316 313 313 315 317 319 318 320 323 329
350 328 56 135 59 54 105 81 51 58 85 40 222 110 240 188 198 213 212 198 168 143 104 52 32 23 12 4 353 345 337 329 326 324 326 323 316 314 312 312 311 312 314 319
356 1 334 78 82 29 68 48 348 351 7 223 164 68 245 221 207 200 203 173 164 108 27 19 17 4 356 346 340 335 330 323 327 326 324 322 319 311 307 308 307 307 309 312
136 321 17 341 61 172 45 134 150 256 230 262 271 246 255 251 205 179 149 165 161 9 8 9 358 348 339 336 334 333 327 322 319 315 316 318 315 311 309 309 306 303 303 305
129 317 320 51 16 87 156 57 169 106 28 52 262 306 349 31 85 135 145 170 241 360 3 350 338 332 330 331 331 329 323 318 316 314 316 314 310 309 310 312 302 300 298 295
191 97 9 310 61 45 98 143 35 13 247 271 289 278 243 308 262 259 209 236 262 326 323 315 320 325 329 328 327 327 321 317 313 310 313 310 310 311 309 306 306 301 303 294
108 86 289 22 24 347 0 30 53 113 122 201 303 269 216 274 278 251 212 222 248 290 302 303 316 328 326 327 331 329 318 312 306 309 311 307 313 323 320 316 312 310 307 294
4 123 139 80 316 257 102 129 106 104 273 134 155 263 327 299 348 137 162 228 268 284 292 304 316 326 333 332 330 327 321 311 311 313 312 309 320 322 319 312 313 314 298 310
173 28 27 2 353 354 81 106 109 99 70 215 155 270 36 37 56 89 18 314 300 285 292 297 318 328 331 330 331 329 324 322 322 317 317 320 321 324 321 317 317 305 317 319
97 116 155 190 215 164 285 190 131 132 119 229 236 285 251 218 262 317 315 307 298 290 292 299 318 322 328 332 333 330 329 329 330 326 323 327 326 333 336 331 331 328 331 325
89 176 191 256 245 206 235 250 180 188 213 187 263 254 300 226 267 287 291 299 298 290 288 302 312 323 330 334 332 330 329 328 332 331 332 329 324 329 335 343 342 344 341 6
24 189 143 276 349 84 276 286 291 244 219 236 278 282 220 271 281 286 289 300 304 299 291 307 313 324 330 332 331 329 330 333 326 327 331 342 335 336 347 2 6 20 48 65
101 126 92 272 4 343 332 231 251 277 129 206 242 246 276 282 279 284 295 300 305 300 295 308 314 322 327 330 329 328 334 339 340 335 332 342 344 8 25 27 17 2 36 51
125 99 87 240 358 357 248 333 213 250 259 218 219 247 262 273 291 295 297 307 310 306 299 304 312 318 325 326 327 333 334 341 341 335 342 359 34 62 63 53 51 65 51 47
85 117 84 114 168 287 144 218 86 96 282 214 217 275 294 307 311 300 318 323 321 309 302 304 311 318 323 325 328 337 354 350 352 3 28 58 79 71 59 54 54 58 57 51
78 79 111 110 125 256 237 208 198 140 293 256 222 275 295 315 309 304 324 319 319 315 311 311 314 322 324 328 335 334 357 355 17 60 83 80 55 67 64 57 62 66 65 70
65 28 161 134 223 294 256 242 11 77 249 287 291 294 303 266 292 311 317 314 314 315 316 310 313 322 326 334 338 346 1 28 72 95 85 70 60 51 61 52 61 79 77 65
170 149 189 134 198 270 342 26 209 236 305 305 307 312 314 313 314 314 316 320 322 320 320 312 311 325 339 347 7 31 57 89 93 71 59 51 59 71 61 62 54 52 54 55
266 178 180 172 215 245 287 287 280 282 296 298 306 315 318 316 318 321 325 329 336 339 337 329 317 342 357 33 59 86 103 86 59 71 71 69 63 61 72 58 60 63 62 69
327 179 147 50 299 243 263 311 302 285 293 302 316 320 322 321 326 328 333 339 347 355 352 355 10 26 59 81 100 95 82 75 79 77 77 75 77 73 60 64 62 61 63 62
209 108 166 261 279 292 294 301 302 294 300 318 322 325 326 329 336 334 337 345 349 1 12 22 41 76 96 108 94 88 88 87 87 81 77 83 72 66 65 60 53 50 60 60
196 190 153 224 240 254 308 330 319 309 315 321 326 327 330 336 333 332 337 340 345 359 20 49 78 104 117 104 99 98 93 92 87 90 92 79 69 69 55 58 47 53 53 58